Вернуться в каталог

PEGASUS DEB

АктивенPO
NORAD 24213·DEBRIS·🇺🇸 United States

Запущен May 19, 1994 с Vandenberg Space Force Base

Loading…

Ближайшие Пролёты (ближайшие 24 часа)

TLE

СвежийSource: Space-Track

Эпоха: Sep 14, 2026, 04:12 UTC

1 24213U 94029KL  26257.17560109  .00005368  00000-0  12067-2 0  9997
2 24213  81.4581  62.2611 0510132 170.9812 190.0972 13.98231707174538

Отслеживайте PEGASUS DEB в реальном времени с AllMySat

Download on the App Store